Location: Proctor
(47.8934°N, 114.3048°W)
Time: 20:37:37
(UTC+00:00)

Vanguard 1 Rocket - Visible Passes

Search period start: 23 June 2024 00:00
Search period end: 03 July 2024 00:00
Orbit: 650 x 4220 km, 34.3° (Epoch: 22 June)

Date Brightness Start Highest point End Pass type
(mag) Time Alt. Az. Time Alt. Az. Time Alt. Az.
23 Jun 10.3 06:40:43 17° SE 06:43:47 18° SE 06:54:22 10° E visible
23 Jun 10.2 08:57:52 19° SSW 09:08:36 44° SSE 09:30:16 10° E visible
24 Jun 9.9 07:49:17 24° S 07:55:45 33° SE 08:13:23 10° E visible
24 Jun 10.4 10:07:23 10° WSW 10:22:46 53° SSE 10:46:49 10° ESE visible
25 Jun 10.1 06:40:41 20° SSE 06:43:47 21° SE 06:55:43 10° E visible
25 Jun 10.2 08:57:49 17° SW 09:08:54 47° SSE 09:30:35 10° E visible
26 Jun 10.5 05:32:09 10° ESE 05:32:34 10° ESE 05:33:00 10° ESE visible
26 Jun 9.8 07:49:12 24° S 07:55:58 37° SSE 08:13:52 10° E visible
26 Jun 10.3 10:08:18 10° WSW 10:23:10 54° S 10:47:00 10° ESE visible
27 Jun 9.8 06:40:32 22° SSE 06:43:55 25° SE 06:56:41 10° E visible
27 Jun 10.0 08:57:40 13° SW 09:09:18 49° SSE 09:30:49 10° E visible
28 Jun 10.2 05:31:49 13° SE 05:32:37 13° SE 05:37:55 10° ESE visible
28 Jun 9.8 07:48:57 22° SSW 07:56:19 39° SSE 08:14:15 10° E visible
28 Jun 10.2 10:09:19 10° WSW 10:23:38 53° S 10:47:05 10° ESE visible
29 Jun 9.6 06:40:11 23° S 06:44:11 28° SE 06:57:26 10° E visible
29 Jun 9.9 08:57:47 10° WSW 09:09:49 50° SSE 09:31:00 10° ESE visible
30 Jun 9.8 05:31:19 15° SE 05:32:49 16° SE 05:39:54 10° E visible
30 Jun 9.7 07:48:25 17° SW 07:56:48 42° SSE 08:14:34 10° E visible
30 Jun 10.2 10:10:24 10° WSW 10:24:10 51° S 10:47:03 10° ESE visible
01 Jul 9.6 06:39:22 21° S 06:44:36 31° SE 06:58:03 10° E visible
01 Jul 9.8 08:58:50 10° WSW 09:10:24 50° S 09:31:06 10° ESE visible
02 Jul 9.5 05:29:56 16° SSE 05:33:07 19° SE 05:41:16 10° E visible
02 Jul 9.5 07:47:48 10° SW 07:57:24 43° SSE 08:14:49 10° E visible
02 Jul 10.1 10:11:33 10° WSW 10:24:43 49° S 10:46:53 10° ESE visible
